| time (UTC) | temp F | wind direction | speed knots | gust knots | rain 1hr in | rain 24hr in | rain mn in | humidity % | barometer mb |
| 20260505200019 | 65 | 223 | 6.1 | 11.3 | 0.01 | 0.01 | 0.01 | 71 | 997.2 |
| 20260505195505 | 65 | 207 | 5.2 | 10.4 | 0.01 | 0.01 | 0.01 | 73 | 997.0 |
| 20260505195009 | 64 | 211 | 3.5 | 11.3 | 0.01 | 0.01 | 0.01 | 73 | 997.2 |
| 20260505194524 | 64 | 159 | 4.3 | 11.3 | 0.01 | 0.01 | 0.01 | 72 | 997.3 |
| 20260505194011 | 64 | 200 | 3.5 | 12.2 | 0.01 | 0.01 | 0.01 | 72 | 997.3 |
| 20260505193508 | 64 | 223 | 5.2 | 13.0 | 0.01 | 0.01 | 0.01 | 72 | 997.4 |
| 20260505193026 | 64 | 203 | 6.1 | 13.9 | 0.01 | 0.01 | 0.01 | 71 | 997.4 |
| 20260505192509 | 64 | 256 | 7.8 | 14.8 | 0.01 | 0.01 | 0.01 | 71 | 997.3 |
| 20260505192013 | 64 | 198 | 7.8 | 14.8 | 0.01 | 0.01 | 0.01 | 70 | 997.2 |
| 20260505191527 | 65 | 237 | 9.6 | 16.5 | 0.01 | 0.01 | 0.01 | 67 | 997.2 |
| 20260505191010 | 66 | 239 | 8.7 | 19.1 | 0.00 | 0.00 | 0.00 | 66 | 997.1 |
| 20260505190515 | 68 | 246 | 13.0 | 19.1 | 0.00 | 0.00 | 0.00 | 59 | 996.9 |
| 20260505190027 | 70 | 217 | 8.7 | 18.2 | 0.00 | 0.00 | 0.00 | 51 | 996.7 |
| 20260505185507 | 71 | 250 | 9.6 | 18.2 | 0.00 | 0.00 | 0.00 | 48 | 996.3 |
| 20260505185008 | 71 | 214 | 7.8 | 21.7 | 0.00 | 0.00 | 0.00 | 47 | 996.4 |
| 20260505184526 | 72 | 190 | 12.2 | 21.7 | 0.00 | 0.00 | 0.00 | 46 | 996.4 |
| 20260505184009 | 72 | 200 | 6.1 | 20.9 | 0.00 | 0.00 | 0.00 | 45 | 996.4 |
| 20260505183510 | 72 | 223 | 10.4 | 21.7 | 0.00 | 0.00 | 0.00 | 45 | 996.3 |
| 20260505183030 | 72 | 190 | 9.6 | 21.7 | 0.00 | 0.00 | 0.00 | 45 | 996.5 |
| 20260505182507 | 72 | 199 | 8.7 | 18.2 | 0.00 | 0.00 | 0.00 | 45 | 996.5 |
| 20260505182013 | 70 | 218 | 7.8 | 16.5 | 0.00 | 0.00 | 0.00 | 57 | 996.4 |
| 20260505181526 | 67 | 261 | 9.6 | 16.5 | 0.00 | 0.00 | 0.00 | 57 | 996.4 |
| 20260505181008 | 64 | 333 | 2.6 | 7.8 | 0.00 | 0.00 | 0.00 | 57 | 996.5 |
| 20260505180513 | 64 | 317 | 3.5 | 6.1 | 0.00 | 0.00 | 0.00 | 55 | 996.6 |
| 20260505180030 | 64 | 13 | 0.9 | 4.3 | 0.00 | 0.00 | 0.00 | 56 | 996.7 |
| 20260505175510 | 63 | 352 | 0.9 | 3.5 | 0.00 | 0.00 | 0.00 | 57 | 996.8 |
| 20260505175010 | 63 | 44 | 1.7 | 4.3 | 0.00 | 0.00 | 0.00 | 57 | 996.9 |
| 20260505174519 | 62 | 273 | 0.9 | 5.2 | 0.00 | 0.00 | 0.00 | 57 | 997.1 |
| 20260505174007 | 62 | 245 | 1.7 | 6.1 | 0.00 | 0.00 | 0.00 | 57 | 997.3 |
| 20260505173508 | 61 | 279 | 1.7 | 6.1 | 0.00 | 0.00 | 0.00 | 58 | 997.3 |
| 20260505173022 | 61 | 282 | 1.7 | 5.2 | 0.00 | 0.00 | 0.00 | 58 | 997.5 |
| 20260505172511 | 61 | 278 | 1.7 | 7.0 | 0.00 | 0.00 | 0.00 | 58 | 997.6 |
| 20260505172014 | 61 | 211 | 0.9 | 6.1 | 0.00 | 0.00 | 0.00 | 60 | 997.6 |
| 20260505171528 | 60 | 275 | 2.6 | 5.2 | 0.00 | 0.00 | 0.00 | 59 | 997.6 |
| 20260505171010 | 60 | 277 | 1.7 | 6.1 | 0.00 | 0.00 | 0.00 | 57 | 997.6 |
| 20260505170512 | 61 | 217 | 1.7 | 6.1 | 0.00 | 0.00 | 0.00 | 54 | 997.6 |
| 20260505170012 | 62 | 273 | 1.7 | 7.0 | 0.00 | 0.00 | 0.00 | 53 | 997.6 |
| 20260505165506 | 63 | 345 | 1.7 | 7.0 | 0.00 | 0.00 | 0.00 | 53 | 997.5 |
| 20260505165007 | 62 | 317 | 2.6 | 7.0 | 0.00 | 0.00 | 0.00 | 54 | 997.6 |
| 20260505164517 | 62 | 285 | 2.6 | 7.0 | 0.00 | 0.00 | 0.00 | 54 | 997.7 |
| 20260505164007 | 62 | 347 | 3.5 | 7.0 | 0.00 | 0.00 | 0.00 | 53 | 997.9 |
| 20260505163507 | 62 | 273 | 2.6 | 7.0 | 0.00 | 0.00 | 0.00 | 53 | 997.9 |
| 20260505163027 | 63 | 350 | 2.6 | 6.1 | 0.00 | 0.00 | 0.00 | 54 | 997.8 |
| 20260505162510 | 62 | 287 | 1.7 | 5.2 | 0.00 | 0.00 | 0.00 | 56 | 998.0 |
| 20260505162011 | 61 | 332 | 2.6 | 4.3 | 0.00 | 0.00 | 0.00 | 57 | 997.9 |
| 20260505161526 | 59 | 336 | 2.6 | 3.5 | 0.00 | 0.00 | 0.00 | 59 | 998.2 |
| 20260505161010 | 57 | 322 | 1.7 | 3.5 | 0.00 | 0.00 | 0.00 | 62 | 998.5 |
| 20260505160513 | 56 | 99 | 1.7 | 7.8 | 0.00 | 0.00 | 0.00 | 61 | 998.6 |
| 20260505153021 | 58 | 341 | 4.3 | 8.7 | 0.00 | 0.00 | 0.00 | 998.9 | |
| 20260505152511 | 58 | 323 | 1.7 | 7.0 | 0.00 | 0.00 | 0.00 | 57 | 998.7 |
| 20260505152009 | 58 | 352 | 3.5 | 7.0 | 0.00 | 0.00 | 0.00 | 57 | 998.6 |
| 20260505151532 | 58 | 342 | 0.9 | 8.7 | 0.00 | 0.00 | 0.00 | 58 | 998.7 |
| 20260505151006 | 58 | 279 | 0.9 | 8.7 | 0.00 | 0.00 | 0.00 | 57 | 998.7 |
| 20260505150509 | 59 | 295 | 3.5 | 5.2 | 0.00 | 0.00 | 0.00 | 57 | 998.8 |
| 20260505140510 | 58 | 132 | 4.3 | 8.7 | 0.00 | 0.00 | 0.00 | 57 | 999.9 |
| 20260505125004 | 59 | 163 | 7.0 | 13.0 | 0.00 | 0.00 | 0.00 | 58 | 1000.3 |
| 20260505124512 | 58 | 215 | 7.0 | 13.0 | 0.00 | 0.00 | 0.00 | 58 | 1000.5 |
| 20260505124003 | 58 | 117 | 5.2 | 11.3 | 0.00 | 0.00 | 0.00 | 59 | 1000.5 |
| 20260505123505 | 57 | 156 | 5.2 | 10.4 | 0.00 | 0.00 | 0.00 | 59 | 1000.6 |
| 20260505123014 | 57 | 232 | 5.2 | 12.2 | 0.00 | 0.00 | 0.00 | 60 | 1000.6 |
| 20260505122506 | 56 | 140 | 7.0 | 14.8 | 0.00 | 0.00 | 0.00 | 61 | 1000.6 |
| 20260505122007 | 55 | 139 | 4.3 | 14.8 | 0.00 | 0.00 | 0.00 | 62 | 1000.7 |
| 20260505121520 | 55 | 136 | 6.1 | 13.9 | 0.00 | 0.00 | 0.00 | 62 | 1000.9 |
| 20260505121007 | 55 | 200 | 7.0 | 13.9 | 0.00 | 0.00 | 0.00 | 62 | 1001.0 |
| 20260505120504 | 54 | 188 | 5.2 | 13.9 | 0.00 | 0.00 | 0.00 | 63 | 1001.1 |
| 20260505120010 | 54 | 186 | 4.3 | 13.0 | 0.00 | 0.00 | 0.00 | 63 | 1001.3 |
| 20260505115501 | 53 | 164 | 4.3 | 13.0 | 0.00 | 0.00 | 0.00 | 63 | 1001.5 |
| 20260505115002 | 53 | 190 | 6.1 | 12.2 | 0.00 | 0.00 | 0.00 | 63 | 1001.7 |
| 20260505114508 | 53 | 190 | 6.1 | 12.2 | 0.00 | 0.00 | 0.00 | 64 | 1001.9 |
| 20260505114002 | 53 | 161 | 6.1 | 12.2 | 0.00 | 0.00 | 0.00 | 65 | 1001.8 |
| 20260505113507 | 52 | 152 | 4.3 | 12.2 | 0.00 | 0.00 | 0.00 | 65 | 1001.8 |
| 20260505113019 | 52 | 264 | 6.1 | 13.0 | 0.00 | 0.00 | 0.00 | 65 | 1001.7 |
| 20260505112504 | 52 | 186 | 4.3 | 13.0 | 0.00 | 0.00 | 0.00 | 66 | 1001.8 |
| 20260505112004 | 51 | 163 | 5.2 | 11.3 | 0.00 | 0.00 | 0.00 | 66 | 1001.8 |
| 20260505111535 | 50 | 210 | 5.2 | 11.3 | 0.00 | 0.00 | 0.00 | 67 | 1001.9 |
| 20260505111006 | 50 | 161 | 7.8 | 13.9 | 0.00 | 0.00 | 0.00 | 68 | 1001.9 |
| 20260505110507 | 49 | 200 | 6.1 | 13.9 | 0.00 | 0.00 | 0.00 | 68 | 1002.0 |
| 20260505102004 | 48 | 170 | 7.0 | 13.0 | 0.00 | 0.00 | 0.00 | 68 | 1002.3 |
| 20260505101523 | 47 | 192 | 5.2 | 10.4 | 0.00 | 0.00 | 0.00 | 69 | 1002.4 |
| 20260505101005 | 47 | 196 | 6.1 | 13.0 | 0.00 | 0.00 | 0.00 | 69 | 1002.4 |
| 20260505100505 | 47 | 211 | 5.2 | 13.9 | 0.00 | 0.00 | 0.00 | 70 | 1002.4 |
| 20260505100022 | 46 | 112 | 7.0 | 13.9 | 0.00 | 0.00 | 0.00 | 70 | 1002.6 |
| 20260505095508 | 46 | 154 | 7.8 | 17.4 | 0.00 | 0.00 | 0.00 | 70 | 1002.5 |
| 20260505095010 | 46 | 171 | 8.7 | 17.4 | 0.00 | 0.00 | 0.00 | 71 | 1002.4 |
| 20260505094527 | 46 | 165 | 6.1 | 13.9 | 0.00 | 0.00 | 0.00 | 71 | 1002.1 |
| 20260505094002 | 46 | 198 | 7.0 | 13.0 | 0.00 | 0.00 | 0.00 | 71 | 1002.1 |
| 20260505093501 | 46 | 219 | 4.3 | 13.9 | 0.00 | 0.00 | 0.00 | 72 | 1002.2 |
| 20260505093008 | 45 | 179 | 6.1 | 13.9 | 0.00 | 0.00 | 0.00 | 72 | 1002.2 |
| 20260505092504 | 45 | 174 | 4.3 | 12.2 | 0.00 | 0.00 | 0.00 | 72 | 1002.2 |
| 20260505092004 | 45 | 146 | 5.2 | 13.9 | 0.00 | 0.00 | 0.00 | 71 | 1002.4 |
| 20260505091511 | 45 | 159 | 6.1 | 13.9 | 0.00 | 0.00 | 0.00 | 71 | 1002.4 |
| 20260505091007 | 45 | 161 | 7.0 | 13.0 | 0.00 | 0.00 | 0.00 | 71 | 1002.6 |
| 20260505090504 | 45 | 113 | 3.5 | 16.5 | 0.00 | 0.00 | 0.00 | 71 | 1002.7 |
| 20260505090023 | 45 | 137 | 6.1 | 16.5 | 0.00 | 0.00 | 0.00 | 71 | 1002.7 |
| 20260505085508 | 45 | 164 | 7.0 | 13.0 | 0.00 | 0.00 | 0.00 | 71 | 1002.7 |
| 20260505085006 | 45 | 192 | 5.2 | 13.0 | 0.00 | 0.00 | 0.00 | 71 | 1003.0 |
| 20260505084529 | 45 | 175 | 5.2 | 8.7 | 0.00 | 0.00 | 0.00 | 72 | 1003.1 |
| 20260505084008 | 45 | 219 | 3.5 | 7.0 | 0.00 | 0.00 | 0.00 | 73 | 1003.1 |
| 20260505083507 | 45 | 200 | 1.7 | 7.0 | 0.00 | 0.00 | 0.00 | 73 | 1003.0 |
| 20260505083010 | 44 | 153 | 1.7 | 9.6 | 0.00 | 0.00 | 0.00 | 73 | 1003.1 |
| 20260505082503 | 44 | 189 | 4.3 | 12.2 | 0.00 | 0.00 | 0.00 | 73 | 1003.2 |
| 20260505082003 | 45 | 198 | 5.2 | 12.2 | 0.00 | 0.00 | 0.00 | 72 | 1003.3 |
| 20260505081512 | 45 | 164 | 7.0 | 12.2 | 0.00 | 0.00 | 0.00 | 72 | 1003.3 |
| 20260505081004 | 45 | 192 | 4.3 | 12.2 | 0.00 | 0.00 | 0.00 | 72 | 1003.1 |
| 20260505080510 | 45 | 184 | 5.2 | 12.2 | 0.00 | 0.00 | 0.00 | 73 | 1003.1 |
| 20260505080024 | 44 | 187 | 5.2 | 11.3 | 0.00 | 0.00 | 0.00 | 73 | 1003.1 |
| 20260505075507 | 44 | 185 | 3.5 | 11.3 | 0.00 | 0.00 | 0.00 | 73 | 1003.5 |
| 20260505075007 | 44 | 169 | 4.3 | 10.4 | 0.00 | 0.00 | 0.00 | 73 | 1004.0 |
| 20260505074523 | 44 | 186 | 4.3 | 9.6 | 0.00 | 0.00 | 0.00 | 73 | 1004.2 |
| 20260505074007 | 44 | 188 | 4.3 | 9.6 | 0.00 | 0.00 | 0.00 | 73 | 1004.0 |
| 20260505073509 | 44 | 150 | 6.1 | 10.4 | 0.00 | 0.00 | 0.00 | 73 | 1004.0 |
| 20260505073023 | 45 | 157 | 5.2 | 11.3 | 0.00 | 0.00 | 0.00 | 73 | 1003.9 |
| 20260505072508 | 45 | 196 | 5.2 | 11.3 | 0.00 | 0.00 | 0.00 | 72 | 1003.7 |
| 20260505072007 | 45 | 203 | 5.2 | 9.6 | 0.00 | 0.00 | 0.00 | 72 | 1003.4 |
| 20260505071507 | 45 | 177 | 5.2 | 9.6 | 0.00 | 0.00 | 0.00 | 72 | 1003.1 |
| 20260505071004 | 45 | 186 | 3.5 | 9.6 | 0.00 | 0.00 | 0.00 | 72 | 1003.0 |
| 20260505070504 | 45 | 188 | 5.2 | 10.4 | 0.00 | 0.00 | 0.00 | 72 | 1003.1 |
| 20260505070022 | 45 | 161 | 3.5 | 10.4 | 0.00 | 0.00 | 0.00 | 72 | 1003.1 |
| 20260505065504 | 45 | 178 | 3.5 | 9.6 | 0.00 | 0.00 | 0.00 | 72 | 1003.1 |
| 20260505065006 | 45 | 145 | 4.3 | 7.8 | 0.00 | 0.00 | 0.00 | 72 | 1003.2 |
| 20260505064519 | 45 | 176 | 3.5 | 7.8 | 0.00 | 0.00 | 0.00 | 73 | 1003.4 |
| 20260505064008 | 45 | 166 | 2.6 | 6.1 | 0.00 | 0.00 | 0.00 | 72 | 1003.3 |
| 20260505063507 | 45 | 167 | 1.7 | 8.7 | 0.00 | 0.00 | 0.00 | 72 | 1003.5 |
| 20260505063025 | 45 | 186 | 4.3 | 8.7 | 0.00 | 0.00 | 0.00 | 72 | 1003.6 |
| 20260505062507 | 45 | 168 | 3.5 | 10.4 | 0.00 | 0.00 | 0.00 | 72 | 1003.5 |
| 20260505062010 | 45 | 168 | 4.3 | 10.4 | 0.00 | 0.00 | 0.00 | 72 | 1003.4 |
| 20260505061534 | 45 | 169 | 3.5 | 8.7 | 0.00 | 0.00 | 0.00 | 72 | 1003.5 |
| 20260505061008 | 45 | 186 | 3.5 | 8.7 | 0.00 | 0.00 | 0.00 | 73 | 1003.5 |
| 20260505060511 | 45 | 222 | 5.2 | 8.7 | 0.00 | 0.00 | 0.00 | 72 | 1003.6 |
| 20260505060012 | 45 | 173 | 5.2 | 10.4 | 0.00 | 0.00 | 0.00 | 72 | 1003.7 |
| 20260505055505 | 45 | 144 | 4.3 | 10.4 | 0.00 | 0.00 | 0.00 | 71 | 1003.8 |
| 20260505055007 | 45 | 171 | 4.3 | 9.6 | 0.00 | 0.00 | 0.00 | 71 | 1003.8 |
| 20260505054524 | 45 | 134 | 4.3 | 8.7 | 0.00 | 0.00 | 0.00 | 71 | 1003.8 |
| 20260505054009 | 45 | 191 | 4.3 | 12.2 | 0.00 | 0.00 | 0.00 | 71 | 1003.9 |
| 20260505053507 | 45 | 183 | 4.3 | 12.2 | 0.00 | 0.00 | 0.00 | 70 | 1003.9 |
| 20260505053026 | 45 | 184 | 5.2 | 11.3 | 0.00 | 0.00 | 0.00 | 70 | 1003.9 |
| 20260505052507 | 46 | 177 | 5.2 | 11.3 | 0.00 | 0.00 | 0.00 | 70 | 1003.9 |
| 20260505052011 | 46 | 175 | 4.3 | 8.7 | 0.00 | 0.00 | 0.00 | 69 | 1003.9 |
| 20260505051526 | 46 | 184 | 4.3 | 8.7 | 0.00 | 0.00 | 0.00 | 69 | 1003.9 |
| 20260505051011 | 46 | 185 | 5.2 | 8.7 | 0.00 | 0.00 | 0.00 | 69 | 1003.9 |
| 20260505050514 | 45 | 169 | 3.5 | 7.8 | 0.00 | 0.00 | 0.00 | 69 | 1003.8 |
| 20260505041504 | 45 | 210 | 4.3 | 7.8 | 0.00 | 0.00 | 0.00 | 70 | 1004.1 |
| 20260505041003 | 45 | 184 | 3.5 | 7.8 | 0.00 | 0.00 | 0.00 | 70 | 1004.0 |
| 20260505040504 | 45 | 184 | 3.5 | 7.8 | 0.00 | 0.00 | 0.00 | 70 | 1003.9 |
| 20260505040011 | 45 | 175 | 3.5 | 7.0 | 0.00 | 0.00 | 0.00 | 70 | 1003.9 |
| 20260505035508 | 45 | 180 | 2.6 | 7.8 | 0.00 | 0.00 | 0.00 | 69 | 1004.0 |
| 20260505035004 | 45 | 191 | 3.5 | 7.8 | 0.00 | 0.00 | 0.00 | 69 | 1003.8 |
| 20260505034504 | 45 | 218 | 1.7 | 4.3 | 0.00 | 0.00 | 0.00 | 69 | 1003.8 |
| 20260505034003 | 45 | 165 | 1.7 | 5.2 | 0.00 | 0.00 | 0.00 | 69 | 1003.7 |
| 20260505033504 | 45 | 229 | 0.9 | 5.2 | 0.00 | 0.00 | 0.00 | 68 | 1003.6 |
| 20260505033011 | 45 | 174 | 2.6 | 7.0 | 0.00 | 0.00 | 0.00 | 68 | 1003.7 |
| 20260505032502 | 45 | 150 | 0.9 | 7.0 | 0.00 | 0.00 | 0.00 | 68 | 1003.7 |
| 20260505032003 | 46 | 168 | 0.9 | 4.3 | 0.00 | 0.00 | 0.00 | 68 | 1003.6 |
| 20260505031502 | 46 | 186 | 1.7 | 6.1 | 0.00 | 0.00 | 0.00 | 68 | 1003.6 |
| 20260505031002 | 46 | 180 | 1.7 | 6.1 | 0.00 | 0.00 | 0.00 | 67 | 1003.6 |
| 20260505030503 | 46 | 156 | 2.6 | 4.3 | 0.00 | 0.00 | 0.00 | 67 | 1003.7 |
| 20260505030013 | 46 | 203 | 0.9 | 4.3 | 0.00 | 0.00 | 0.00 | 67 | 1003.6 |
| 20260505025504 | 46 | 175 | 1.7 | 7.0 | 0.00 | 0.00 | 0.00 | 67 | 1003.6 |
| 20260505025002 | 46 | 163 | 0.9 | 7.0 | 0.00 | 0.00 | 0.00 | 67 | 1003.5 |
| 20260505024505 | 46 | 165 | 1.7 | 7.0 | 0.00 | 0.00 | 0.00 | 67 | 1003.4 |
| 20260505024002 | 46 | 199 | 2.6 | 7.0 | 0.00 | 0.00 | 0.00 | 67 | 1003.5 |
| 20260505023502 | 46 | 183 | 2.6 | 7.0 | 0.00 | 0.00 | 0.00 | 67 | 1003.5 |
| 20260505023007 | 46 | 167 | 2.6 | 7.0 | 0.00 | 0.00 | 0.00 | 67 | 1003.6 |
| 20260505022501 | 46 | 155 | 1.7 | 6.1 | 0.00 | 0.00 | 0.00 | 67 | 1003.6 |
| 20260505022001 | 46 | 167 | 3.5 | 5.2 | 0.00 | 0.00 | 0.00 | 67 | 1003.6 |
| 20260505021506 | 46 | 173 | 1.7 | 4.3 | 0.00 | 0.00 | 0.00 | 67 | 1003.6 |
| 20260505021001 | 47 | 169 | 1.7 | 5.2 | 0.00 | 0.00 | 0.00 | 67 | 1003.6 |
| 20260505020502 | 47 | 169 | 1.7 | 5.2 | 0.00 | 0.00 | 0.00 | 66 | 1003.6 |
| 20260505020007 | 46 | 198 | 0.0 | 2.6 | 0.00 | 0.00 | 0.00 | 66 | 1003.5 |
| 20260505015501 | 46 | 175 | 0.9 | 3.5 | 0.00 | 0.00 | 0.00 | 66 | 1003.6 |
| 20260505015006 | 45 | 198 | 1.7 | 3.5 | 0.00 | 0.00 | 0.00 | 67 | 1003.5 |
| 20260505014504 | 45 | 184 | 0.0 | 1.7 | 0.00 | 0.00 | 0.00 | 66 | 1003.5 |
| 20260505014004 | 45 | 198 | 0.0 | 1.7 | 0.00 | 0.00 | 0.00 | 65 | 1003.5 |
| 20260505013503 | 45 | 186 | 0.0 | 1.7 | 0.00 | 0.00 | 0.00 | 64 | 1003.6 |
| 20260505013004 | 46 | 186 | 0.0 | 1.7 | 0.00 | 0.00 | 0.00 | 63 | 1003.5 |
| 20260505012504 | 46 | 186 | 0.0 | 1.7 | 0.00 | 0.00 | 0.00 | 61 | 1003.5 |
| 20260505012001 | 46 | 186 | 0.0 | 1.7 | 0.00 | 0.00 | 0.00 | 61 | 1003.4 |
| 20260505011506 | 47 | 186 | 0.0 | 2.6 | 0.00 | 0.00 | 0.00 | 60 | 1003.4 |
| 20260505011001 | 47 | 225 | 0.0 | 2.6 | 0.00 | 0.00 | 0.00 | 60 | 1003.5 |
| 20260505010502 | 47 | 189 | 0.0 | 1.7 | 0.00 | 0.00 | 0.00 | 59 | 1003.4 |
| 20260505010005 | 48 | 191 | 0.0 | 1.7 | 0.00 | 0.00 | 0.00 | 59 | 1003.4 |
| 20260505005501 | 48 | 198 | 0.0 | 3.5 | 0.00 | 0.00 | 0.00 | 59 | 1003.2 |
| 20260505005001 | 48 | 169 | 1.7 | 5.2 | 0.00 | 0.00 | 0.00 | 59 | 1003.2 |
| 20260505004507 | 48 | 218 | 2.6 | 5.2 | 0.00 | 0.00 | 0.00 | 60 | 1003.2 |
| 20260505004000 | 48 | 231 | 2.6 | 5.2 | 0.00 | 0.00 | 0.00 | 60 | 1003.1 |
| 20260505003507 | 48 | 266 | 0.9 | 4.3 | 0.00 | 0.00 | 0.00 | 62 | 1003.0 |
| 20260505003008 | 47 | 254 | 0.9 | 4.3 | 0.00 | 0.00 | 0.00 | 63 | 1003.0 |
| 20260505002503 | 47 | 240 | 1.7 | 2.6 | 0.00 | 0.00 | 0.00 | 65 | 1002.9 |
| 20260505002004 | 47 | 263 | 0.0 | 1.7 | 0.00 | 0.00 | 0.00 | 66 | 1002.9 |
| 20260505001508 | 48 | 263 | 0.0 | 1.7 | 0.00 | 0.00 | 0.00 | 67 | 1002.8 |
| 20260505001003 | 48 | 263 | 0.0 | 1.7 | 0.00 | 0.00 | 0.00 | 65 | 1002.7 |
| 20260505000503 | 49 | 263 | 0.0 | 1.7 | 0.00 | 0.00 | 0.00 | 65 | 1002.7 |
| 20260505000007 | 49 | 263 | 0.0 | 1.7 | 0.00 | 0.00 | 0.00 | 63 | 1002.6 |
| 20260504235501 | 50 | 263 | 0.0 | 2.6 | 0.00 | 0.00 | 0.00 | 61 | 1002.6 |
| 20260504235004 | 50 | 248 | 0.9 | 4.3 | 0.00 | 0.00 | 0.00 | 59 | 1002.5 |
| 20260504234505 | 50 | 227 | 2.6 | 4.3 | 0.00 | 0.00 | 0.00 | 58 | 1002.5 |
| 20260504234000 | 50 | 224 | 1.7 | 4.3 | 0.00 | 0.00 | 0.00 | 58 | 1002.3 |
| 20260504233501 | 50 | 236 | 0.9 | 2.6 | 0.00 | 0.00 | 0.00 | 60 | 1002.3 |
| 20260504233008 | 50 | 267 | 0.9 | 3.5 | 0.00 | 0.00 | 0.00 | 61 | 1002.3 |
| 20260504232505 | 50 | 267 | 1.7 | 3.5 | 0.00 | 0.00 | 0.00 | 61 | 1002.1 |
| 20260504232003 | 51 | 277 | 1.7 | 5.2 | 0.00 | 0.00 | 0.00 | 61 | 1002.1 |
| 20260504231509 | 51 | 266 | 2.6 | 7.8 | 0.00 | 0.00 | 0.00 | 59 | 1001.9 |
| 20260504231006 | 51 | 278 | 2.6 | 7.8 | 0.00 | 0.00 | 0.00 | 56 | 1001.9 |
| 20260504230503 | 51 | 241 | 3.5 | 6.1 | 0.00 | 0.00 | 0.00 | 56 | 1001.9 |
| 20260504230010 | 51 | 255 | 1.7 | 6.1 | 0.00 | 0.00 | 0.00 | 59 | 1001.8 |
| 20260504225503 | 51 | 284 | 2.6 | 6.1 | 0.00 | 0.00 | 0.00 | 59 | 1001.7 |
| 20260504225003 | 52 | 261 | 4.3 | 7.0 | 0.00 | 0.00 | 0.00 | 57 | 1001.8 |
| 20260504224509 | 52 | 286 | 2.6 | 7.0 | 0.00 | 0.00 | 0.00 | 55 | 1001.7 |
| 20260504224004 | 52 | 254 | 3.5 | 7.8 | 0.00 | 0.00 | 0.00 | 54 | 1001.7 |
| 20260504223504 | 52 | 285 | 2.6 | 7.8 | 0.00 | 0.00 | 0.00 | 57 | 1001.7 |
| 20260504223005 | 52 | 248 | 3.5 | 10.4 | 0.00 | 0.00 | 0.00 | 55 | 1001.7 |
| 20260504222504 | 52 | 259 | 3.5 | 10.4 | 0.00 | 0.00 | 0.00 | 54 | 1001.7 |
| 20260504222003 | 53 | 266 | 4.3 | 10.4 | 0.00 | 0.00 | 0.00 | 51 | 1001.7 |
| 20260504221509 | 53 | 249 | 4.3 | 9.6 | 0.00 | 0.00 | 0.00 | 51 | 1001.7 |
| 20260504221004 | 52 | 266 | 5.2 | 10.4 | 0.00 | 0.00 | 0.00 | 51 | 1001.7 |
| 20260504220504 | 52 | 236 | 5.2 | 11.3 | 0.00 | 0.00 | 0.00 | 54 | 1001.7 |
| 20260504220028 | 52 | 246 | 5.2 | 11.3 | 0.00 | 0.00 | 0.00 | 55 | 1001.7 |
| 20260504215506 | 52 | 213 | 5.2 | 10.4 | 0.00 | 0.00 | 0.00 | 56 | 1001.6 |
| 20260504215008 | 52 | 285 | 5.2 | 11.3 | 0.00 | 0.00 | 0.00 | 57 | 1001.6 |
| 20260504214511 | 52 | 253 | 5.2 | 11.3 | 0.00 | 0.00 | 0.00 | 55 | 1001.5 |
| 20260504214004 | 53 | 268 | 4.3 | 11.3 | 0.00 | 0.00 | 0.00 | 53 | 1001.5 |
| 20260504213505 | 53 | 235 | 6.1 | 11.3 | 0.00 | 0.00 | 0.00 | 50 | 1001.5 |
| 20260504213011 | 54 | 292 | 6.1 | 11.3 | 0.00 | 0.00 | 0.00 | 48 | 1001.5 |
| 20260504212505 | 54 | 258 | 7.0 | 11.3 | 0.00 | 0.00 | 0.00 | 47 | 1001.5 |
| 20260504212007 | 53 | 263 | 6.1 | 12.2 | 0.00 | 0.00 | 0.00 | 49 | 1001.5 |
| 20260504211508 | 53 | 259 | 6.1 | 12.2 | 0.00 | 0.00 | 0.00 | 48 | 1001.4 |
| 20260504211004 | 55 | 269 | 5.2 | 10.4 | 0.00 | 0.00 | 0.00 | 43 | 1001.3 |
| 20260504210504 | 55 | 213 | 6.1 | 13.0 | 0.00 | 0.00 | 0.00 | 39 | 1001.2 |
| 20260504210012 | 55 | 246 | 7.0 | 13.0 | 0.00 | 0.00 | 0.00 | 38 | 1001.2 |
| 20260504205504 | 55 | 290 | 6.1 | 12.2 | 0.00 | 0.00 | 0.00 | 41 | 1001.2 |
| 20260504205004 | 55 | 238 | 8.7 | 15.6 | 0.00 | 0.00 | 0.00 | 39 | 1001.2 |
| 20260504204514 | 55 | 277 | 7.8 | 15.6 | 0.00 | 0.00 | 0.00 | 39 | 1001.2 |
| 20260504204004 | 55 | 273 | 7.8 | 15.6 | 0.00 | 0.00 | 0.00 | 37 | 1001.2 |
| 20260504203504 | 55 | 269 | 7.8 | 13.9 | 0.00 | 0.00 | 0.00 | 41 | 1001.2 |
| 20260504203012 | 54 | 273 | 7.0 | 12.2 | 0.00 | 0.00 | 0.00 | 44 | 1001.1 |
| 20260504202505 | 54 | 227 | 7.0 | 11.3 | 0.00 | 0.00 | 0.00 | 44 | 1001.2 |
| 20260504202004 | 55 | 299 | 6.1 | 12.2 | 0.00 | 0.00 | 0.00 | 39 | 1001.1 |
| 20260504201512 | 56 | 246 | 7.0 | 12.2 | 0.00 | 0.00 | 0.00 | 34 | 1001.1 |
| 20260504201004 | 56 | 246 | 6.1 | 13.0 | 0.00 | 0.00 | 0.00 | 35 | 1001.0 |
| 20260504200504 | 55 | 234 | 7.0 | 13.9 | 0.00 | 0.00 | 0.00 | 35 | 1001.0 |